Trinity Center, CA

11:06 PM PST on February 13, 2016 (GMT -0800)
Trinity Center

Weather History for KO86 - March, 2012

Change the Weather History Date:

Wednesday, March 21, 2012

  Actual Average (KMHS) Record (KMHS)
Temperature  
Mean Temperature 44 °F 43 °F  
Max Temperature 50 °F 56 °F 78 °F (1940)
Min Temperature 37 °F 31 °F 19 °F (1953)
Degree Days  
Heating Degree Days 22 22  
Month to date heating degree days 492  
Since 1 July heating degree days 4467  
Cooling Degree Days 0 0  
Month to date cooling degree days 0  
Year to date cooling degree days 0  
Moisture  
Dew Point 41 °F    
Average Humidity 92    
Maximum Humidity 100    
Minimum Humidity 76    
Precipitation  
Precipitation 0.09 in 0.16 in 1.37 in (1958)
Month to date precipitation 4.54  
Year to date precipitation 18.83  
Sea Level Pressure  
Sea Level Pressure 30.06 in    
Wind  
Wind Speed 2 mph ()    
Max Wind Speed 13 mph    
Max Gust Speed 20 mph    
Visibility 7.3 miles    
Events      
T = Trace of Precipitation, MM = Missing Value Source: Averaged Metar Reports

Daily Weather History Graph

Daily Weather History Graph

Search for Another Location

Airport or City:

Trip Planner

Search our weather history database for the weather conditions in past years. The results will help you decide how hot, cold, wet, or windy it might be!

Date:

Astronomy

Mar. 21, 2012 Rise Set
Actual Time 7:11 AM PDT 7:24 PM PDT
Civil Twilight 6:44 AM PDT 7:52 PM PDT
Nautical Twilight 6:11 AM PDT 8:24 PM PDT
Astronomical Twilight 5:39 AM PDT 8:57 PM PDT
Moon 6:25 AM PDT (3/21) 6:56 PM PDT (3/21)
Length of Visible Light 13h 08m
Length of Day
12h 13m
Waning Crescent, 1% of the Moon is Illuminated
Mar 21
Waning Crescent
Mar 22
New
Mar 30
First Quarter
Apr 6
Full
Apr 13
Last Quarter

Hourly Weather History & Observations

Time (PDT) Temp. Windchill Dew Point Humidity Pressure Visibility Wind Dir Wind Speed Gust Speed Precip Events Conditions
12:15 AM 39.2 °F - 37.4 °F 93% 30.21 in 4.0 mi Calm Calm - N/A   Overcast
12:35 AM 37.4 °F - 37.4 °F 100% 30.20 in 3.0 mi Calm Calm - N/A   Overcast
12:55 AM 37.4 °F - 37.4 °F 100% 30.20 in 3.0 mi Calm Calm - N/A   Overcast
1:15 AM 37.4 °F 33.8 °F 37.4 °F 100% 30.20 in 5.0 mi NE 4.6 mph - N/A   Overcast
1:35 AM 37.4 °F - 37.4 °F 100% 30.19 in 4.0 mi Calm Calm - N/A   Overcast
1:55 AM 37.4 °F - 37.4 °F 100% 30.19 in 7.0 mi Calm Calm - N/A   Overcast
2:15 AM 37.4 °F 34.9 °F 37.4 °F 100% 30.19 in 10.0 mi NE 3.5 mph - N/A   Overcast
2:35 AM 37.4 °F - 37.4 °F 100% 30.19 in 10.0 mi Calm Calm - N/A   Overcast
2:55 AM 37.4 °F - 37.4 °F 100% 30.18 in 10.0 mi Calm Calm - N/A   Overcast
3:15 AM 39.2 °F - 37.4 °F 93% 30.17 in 10.0 mi Calm Calm - N/A   Overcast
3:35 AM 37.4 °F - 37.4 °F 100% 30.17 in 10.0 mi Calm Calm - N/A   Overcast
3:55 AM 37.4 °F - 37.4 °F 100% 30.16 in 10.0 mi Calm Calm - N/A   Overcast
4:15 AM 37.4 °F 34.9 °F 37.4 °F 100% 30.15 in 7.0 mi NNE 3.5 mph - N/A   Overcast
4:35 AM 37.4 °F - 37.4 °F 100% 30.14 in 10.0 mi Calm Calm - 0.01 in   Overcast
4:55 AM 37.4 °F - 37.4 °F 100% 30.14 in 10.0 mi Calm Calm - 0.01 in   Overcast
5:15 AM 37.4 °F - 37.4 °F 100% 30.14 in 10.0 mi Calm Calm - N/A   Overcast
5:35 AM 37.4 °F - 37.4 °F 100% 30.13 in 9.0 mi Calm Calm - N/A   Overcast
5:55 AM 37.4 °F - 37.4 °F 100% 30.13 in 4.0 mi Calm Calm - N/A   Overcast
6:15 AM 37.4 °F - 37.4 °F 100% 30.13 in 3.0 mi Calm Calm - 0.01 in   Overcast
6:35 AM 37.4 °F - 37.4 °F 100% 30.13 in 4.0 mi Calm Calm - 0.01 in   Mostly Cloudy
6:55 AM 37.4 °F - 37.4 °F 100% 30.13 in 4.0 mi Calm Calm - 0.01 in   Overcast
7:15 AM 37.4 °F - 37.4 °F 100% 30.13 in 4.0 mi Calm Calm - N/A   Overcast
7:35 AM 37.4 °F 34.9 °F 37.4 °F 100% 30.12 in 5.0 mi North 3.5 mph - N/A   Mostly Cloudy
7:55 AM 39.2 °F - 37.4 °F 93% 30.13 in 2.0 mi Calm Calm - N/A   Overcast
8:15 AM 39.2 °F - 37.4 °F 93% 30.13 in 1.2 mi Calm Calm - 0.01 in   Overcast
8:35 AM 39.2 °F - 37.4 °F 93% 30.13 in 1.2 mi Calm Calm - 0.02 in   Mostly Cloudy
8:55 AM 39.2 °F - 37.4 °F 93% 30.13 in 4.0 mi Calm Calm - 0.02 in   Mostly Cloudy
9:15 AM 39.2 °F - 39.2 °F 100% 30.13 in 8.0 mi Calm Calm - N/A   Overcast
9:35 AM 39.2 °F - 39.2 °F 100% 30.13 in 10.0 mi Calm Calm - N/A   Overcast
9:55 AM 39.2 °F - 39.2 °F 100% 30.12 in 7.0 mi Calm Calm - N/A   Overcast
10:15 AM 41.0 °F - 39.2 °F 93% 30.12 in 1.5 mi Calm Calm - N/A   Mostly Cloudy
10:35 AM 41.0 °F - 39.2 °F 93% 30.12 in 1.5 mi Calm Calm - 0.01 in   Scattered Clouds
10:55 AM 41.0 °F - 39.2 °F 93% 30.12 in 3.0 mi Calm Calm - 0.01 in   Mostly Cloudy
11:15 AM 41.0 °F - 41.0 °F 100% 30.11 in 3.0 mi Calm Calm - N/A   Mostly Cloudy
11:35 AM 41.0 °F - 41.0 °F 100% 30.11 in 10.0 mi Calm Calm - 0.01 in   Overcast
11:55 AM 42.8 °F - 41.0 °F 93% 30.10 in 10.0 mi Calm Calm - 0.01 in   Overcast
12:15 PM 42.8 °F - 41.0 °F 93% 30.10 in 10.0 mi Calm Calm - N/A   Overcast
12:35 PM 44.6 °F - 41.0 °F 87% 30.09 in 10.0 mi Calm Calm - N/A   Overcast
12:55 PM 44.6 °F - 42.8 °F 93% 30.08 in 3.0 mi Calm Calm - N/A   Mostly Cloudy
1:15 PM 46.4 °F 45.2 °F 44.6 °F 93% 30.07 in 10.0 mi NE 3.5 mph - N/A   Overcast
1:35 PM 46.4 °F - 44.6 °F 93% 30.06 in 10.0 mi Calm Calm - N/A   Overcast
1:55 PM 46.4 °F - 44.6 °F 93% 30.05 in 10.0 mi Calm Calm - N/A   Overcast
2:15 PM 46.4 °F - 44.6 °F 93% 30.04 in 8.0 mi Calm Calm - N/A   Overcast
2:35 PM 48.2 °F - 44.6 °F 87% 30.03 in 7.0 mi Calm Calm - N/A   Overcast
2:55 PM 48.2 °F - 44.6 °F 87% 30.03 in 10.0 mi SE 3.5 mph - N/A   Overcast
3:15 PM 48.2 °F - 44.6 °F 87% 30.02 in 10.0 mi South 5.8 mph - N/A   Overcast
3:35 PM 50.0 °F - 44.6 °F 82% 30.01 in 6.0 mi South 6.9 mph - N/A   Overcast
3:55 PM 50.0 °F - 44.6 °F 82% 30.00 in 8.0 mi SW 9.2 mph - N/A   Mostly Cloudy
4:15 PM 50.0 °F - 44.6 °F 82% 30.00 in 5.0 mi SSW 8.1 mph - N/A   Overcast
4:35 PM 50.0 °F - 44.6 °F 82% 30.00 in 10.0 mi South 6.9 mph - N/A   Overcast
4:55 PM 50.0 °F - 46.4 °F 87% 29.99 in 4.0 mi South 4.6 mph - 0.01 in   Mostly Cloudy
5:15 PM 50.0 °F - 46.4 °F 87% 29.98 in 10.0 mi South 4.6 mph - N/A   Mostly Cloudy
5:35 PM 50.0 °F - 44.6 °F 82% 29.97 in 10.0 mi South 8.1 mph - N/A   Overcast
5:55 PM 50.0 °F - 44.6 °F 82% 29.96 in 10.0 mi South 5.8 mph - N/A   Overcast
6:15 PM 50.0 °F - 44.6 °F 82% 29.96 in 8.0 mi South 6.9 mph - N/A   Overcast
6:35 PM 50.0 °F - 44.6 °F 82% 29.96 in 5.0 mi SSW 8.1 mph - N/A   Mostly Cloudy
7:15 PM 48.2 °F - 44.6 °F 87% 29.95 in 10.0 mi South 12.7 mph 17.3 mph N/A   Scattered Clouds
7:35 PM 48.2 °F - 44.6 °F 87% 29.94 in 9.0 mi South 12.7 mph - N/A   Mostly Cloudy
7:55 PM 48.2 °F - 44.6 °F 87% 29.93 in 10.0 mi South 10.4 mph 17.3 mph N/A   Mostly Cloudy
8:15 PM 48.2 °F - 44.6 °F 87% 29.93 in 10.0 mi South 11.5 mph 17.3 mph N/A   Mostly Cloudy
8:35 PM 48.2 °F - 42.8 °F 82% 29.93 in 10.0 mi SSW 10.4 mph - N/A   Mostly Cloudy
8:55 PM 48.2 °F - 41.0 °F 76% 29.93 in 10.0 mi SSW 12.7 mph 19.6 mph N/A   Mostly Cloudy
9:15 PM 48.2 °F - 41.0 °F 76% 29.93 in 8.0 mi SSW 12.7 mph 19.6 mph 0.01 in   Mostly Cloudy
9:35 PM 48.2 °F - 42.8 °F 82% 29.93 in 10.0 mi South 6.9 mph - 0.01 in   Overcast
9:55 PM 46.4 °F 41.9 °F 44.6 °F 93% 29.92 in 10.0 mi South 9.2 mph - 0.01 in   Overcast
10:15 PM 46.4 °F 44.3 °F 42.8 °F 87% 29.91 in 6.0 mi SSW 4.6 mph - N/A   Mostly Cloudy
10:35 PM 46.4 °F 44.3 °F 42.8 °F 87% 29.90 in 6.0 mi SSW 4.6 mph - N/A   Overcast
10:55 PM 46.4 °F - 44.6 °F 93% 29.90 in 9.0 mi Calm Calm - 0.01 in   Overcast
11:15 PM 46.4 °F 42.9 °F 42.8 °F 87% 29.91 in 10.0 mi WSW 6.9 mph - N/A   Mostly Cloudy
11:35 PM 46.4 °F 41.5 °F 44.6 °F 93% 29.89 in 6.0 mi SSE 10.4 mph - N/A   Overcast
11:55 PM 46.4 °F 44.3 °F 44.6 °F 93% 29.89 in 10.0 mi South 4.6 mph - N/A   Overcast